, FL

(GMT )
Bonifay

Weather History for K1J0 - August, 2019

Change the Weather History Date:

Tuesday, August 13, 2019

  Actual Average Record
Temperature  
Mean Temperature 87 °F -  
Max Temperature 96 °F - - ()
Min Temperature 78 °F - - ()
Cooling Degree Days 22    
Growing Degree Days 37 (Base 50)    
Moisture  
Dew Point 76 °F    
Average Humidity 81    
Maximum Humidity 97    
Minimum Humidity 46    
Precipitation  
Precipitation 0.00 in - - ()
Sea Level Pressure  
Sea Level Pressure 29.81 in    
Wind  
Wind Speed 1 mph (SW)    
Max Wind Speed 7 mph    
Max Gust Speed -    
Visibility 8 miles    
Events Fog    
Averages and records for this station are not official NWS values.
T = Trace of Precipitation, MM = Missing Value Source: NWS Daily Summary

Daily Weather History Graph

Daily Weather History Graph

Search for Another Location

Airport or City:

Astronomy

Aug. 13, 2019 Rise Set
Actual Time 7:07 AM EDT 8:26 PM EDT
Civil Twilight 6:41 AM EDT 8:52 PM EDT
Nautical Twilight 6:11 AM EDT 9:22 PM EDT
Astronomical Twilight 5:39 AM EDT 9:54 PM EDT
Moon 7:33 PM EDT (8/13) 5:17 AM EDT (8/13)
Length of Visible Light 14h 10m
Length of Day
13h 19m
Waxing Gibbous, 97% of the Moon is Illuminated
Aug 13
Waxing Gibbous
Aug 15
Full
Aug 23
Last Quarter
Aug 30
New
Sep 5
First Quarter

Hourly Weather History & Observations

Time (EDT) Temp. Heat Index Dew Point Humidity Pressure Visibility Wind Dir Wind Speed Gust Speed Precip Events Conditions
12:46 AM 80.1 °F 85.8 °F 77.0 °F 90% 29.92 in 10.0 mi Calm Calm - N/A   Partly Cloudy
12:58 AM 80.1 °F 85.4 °F 75.9 °F 87% 29.79 in 10.0 mi Calm Calm - N/A   Scattered Clouds
1:58 AM 79.0 °F - 75.9 °F 90% 29.78 in 10.0 mi Calm Calm - N/A   Clear
2:11 AM 79.0 °F - 75.9 °F 90% 29.90 in 10.0 mi Calm Calm - N/A   Partly Cloudy
2:20 AM 78.1 °F - 75.9 °F 93% 29.90 in 10.0 mi Calm Calm - N/A   Mostly Cloudy
2:58 AM 79.0 °F - 75.9 °F 90% 29.77 in 10.0 mi Calm Calm - N/A   Overcast
3:02 AM 79.0 °F - 75.9 °F 90% 29.89 in 10.0 mi Calm Calm - N/A   Overcast
3:58 AM 78.1 °F - 75.9 °F 93% 29.77 in 3.0 mi Calm Calm - N/A   Overcast
4:58 AM 79.0 °F - 75.9 °F 90% 29.77 in 7.0 mi Calm Calm - N/A   Overcast
5:35 AM 79.0 °F - 77.0 °F 94% 29.90 in 7.0 mi Calm Calm - N/A   Overcast
6:12 AM 78.1 °F - 75.9 °F 93% 29.90 in 7.0 mi Calm Calm - N/A   Overcast
6:58 AM 79.0 °F - 75.9 °F 90% 29.79 in 6.0 mi Calm Calm - N/A   Overcast
7:38 AM 78.1 °F - 77.0 °F 96% 29.91 in 2.0 mi Calm Calm - N/A   Overcast
8:58 AM 79.0 °F - 78.1 °F 97% 29.81 in 0.2 mi Calm Calm - N/A Fog Fog
9:58 AM 82.9 °F 92.8 °F 78.1 °F 85% 29.81 in 6.0 mi Calm Calm - N/A   Haze
10:58 AM 88.0 °F 103.1 °F 79.0 °F 75% 29.81 in 10.0 mi NNE 3.5 mph - N/A   Scattered Clouds
11:58 AM 91.0 °F 104.2 °F 77.0 °F 63% 29.81 in 10.0 mi Calm Calm - N/A   Clear
12:58 PM 93.0 °F 105.3 °F 75.9 °F 57% 29.81 in 10.0 mi Calm Calm - N/A   Clear
1:58 PM 93.0 °F 104.6 °F 75.0 °F 56% 29.79 in 10.0 mi Calm Calm - N/A   Partly Cloudy
3:58 PM 96.1 °F 104.9 °F 72.0 °F 46% 29.74 in 10.0 mi South 4.6 mph - N/A   Clear
4:58 PM 91.0 °F 101.6 °F 75.0 °F 59% 29.75 in 10.0 mi West 4.6 mph - N/A   Clear
5:58 PM 91.9 °F 103.9 °F 75.9 °F 59% 29.74 in 10.0 mi SW 6.9 mph - N/A   Clear
6:58 PM 87.1 °F 95.4 °F 73.9 °F 65% 29.75 in 10.0 mi SW 4.6 mph - N/A   Clear
7:58 PM 84.0 °F 92.6 °F 75.9 °F 76% 29.75 in 10.0 mi Calm Calm - N/A   Clear
8:58 PM 82.0 °F 89.4 °F 75.9 °F 82% 29.78 in 10.0 mi Calm Calm - N/A   Clear
9:58 PM 81.0 °F 87.9 °F 77.0 °F 88% 29.79 in 10.0 mi South 4.6 mph - N/A   Clear
11:58 PM 80.1 °F 85.8 °F 77.0 °F 90% 29.80 in 10.0 mi Calm Calm - N/A   Clear